Location: ?�kov
(49.4404°N, 15.1201°E)
Time: 17:37:31
(UTC+00:00)

GP-B - Pass Details

Date: 07 June 2020
Orbit: 631 x 635 km, 89.8° (Epoch: 13 July)

Event Time Altitude Azimuth Distance (km) Brightness Sun altitude
Rises 00:33:31 0° 359° (N) 2,946 7.8 -14.7°
Reaches altitude 10° 00:35:46 10° 358° (N) 2,032 6.8 -14.6°
Maximum altitude 00:40:13 74° 274° (W) 666 3.1 -14.3°
Enters shadow 00:43:00 22° 193° (SSW) 1,373 4.2 -14.1°
